Tucson, AZ

5:51 AM MST on August 20, 2019 (GMT -0700)
Tucson International

Weather History for KTUS - May, 2019

Change the Weather History Date:

Wednesday, May 8, 2019

  Actual Average Record
Temperature  
Mean Temperature 69 °F 74 °F  
Max Temperature 84 °F 89 °F 106 °F (1989)
Min Temperature 53 °F 58 °F 40 °F (1965)
Degree Days  
Heating Degree Days 0 0  
Month to date heating degree days 0 3  
Since 1 July heating degree days 1408 1509  
Cooling Degree Days 4 9  
Month to date cooling degree days 56 64  
Year to date cooling degree days 236 218  
Growing Degree Days 18 (Base 50)    
Moisture  
Dew Point 37 °F    
Average Humidity 32    
Maximum Humidity 51    
Minimum Humidity 10    
Precipitation  
Precipitation 0.00 in 0.01 in 0.07 in (1987)
Month to date precipitation 0.00 0.05  
Year to date precipitation 3.81 2.89  
Sea Level Pressure  
Sea Level Pressure 29.81 in    
Wind  
Wind Speed 7 mph (WSW)    
Max Wind Speed 18 mph    
Max Gust Speed 29 mph    
Visibility 10 miles    
Events      
T = Trace of Precipitation, MM = Missing Value Source: NWS Daily Summary

Daily Weather History Graph

Daily Weather History Graph

Search for Another Location

Airport or City:

Astronomy

May. 08, 2019 Rise Set
Actual Time 5:31 AM MST 7:09 PM MST
Civil Twilight 5:05 AM MST 7:35 PM MST
Nautical Twilight 4:33 AM MST 8:07 PM MST
Astronomical Twilight 4:00 AM MST 8:41 PM MST
Moon 8:37 AM MST (5/8) 11:07 PM MST (5/8)
Length of Visible Light 14h 30m
Length of Day
13h 37m
Waxing Crescent, 16% of the Moon is Illuminated
May 8
Waxing Crescent
May 11
First Quarter
May 18
Full
May 26
Last Quarter
Jun 3
New

Hourly Weather History & Observations

Time (MST) Temp. Dew Point Humidity Pressure Visibility Wind Dir Wind Speed Gust Speed Precip Events Conditions
12:53 AM 60.1 °F 34.0 °F 38% 29.88 in 10.0 mi South 5.8 mph - N/A   Clear
1:53 AM 57.0 °F 35.1 °F 44% 29.87 in 10.0 mi SSE 8.1 mph - N/A   Clear
2:53 AM 57.0 °F 37.9 °F 49% 29.86 in 10.0 mi SE 5.8 mph - N/A   Clear
3:53 AM 55.9 °F 37.9 °F 51% 29.85 in 10.0 mi ESE 5.8 mph - N/A   Clear
4:53 AM 55.0 °F 37.0 °F 51% 29.86 in 10.0 mi SE 6.9 mph - N/A   Clear
5:53 AM 54.0 °F 35.1 °F 49% 29.86 in 10.0 mi South 4.6 mph - N/A   Clear
6:53 AM 57.0 °F 37.9 °F 49% 29.87 in 10.0 mi SSE 6.9 mph - N/A   Clear
7:29 AM 60.1 °F 39.0 °F 46% 29.97 in 10.0 mi SE 4.6 mph - N/A   Clear
7:53 AM 62.1 °F 39.0 °F 43% 29.88 in 10.0 mi Calm Calm - N/A   Clear
8:53 AM 69.1 °F 39.0 °F 33% 29.87 in 10.0 mi WNW 3.5 mph - N/A   Clear
9:53 AM 72.0 °F 37.9 °F 29% 29.85 in 10.0 mi Variable 3.5 mph - N/A   Clear
10:53 AM 73.9 °F 37.9 °F 27% 29.84 in 10.0 mi Variable 3.5 mph - N/A   Clear
11:53 AM 77.0 °F 37.9 °F 24% 29.81 in 10.0 mi ESE 4.6 mph - N/A   Partly Cloudy
12:53 PM 77.0 °F 37.0 °F 24% 29.78 in 10.0 mi West 10.4 mph 19.6 mph N/A   Scattered Clouds
1:53 PM 80.1 °F 36.0 °F 20% 29.75 in 10.0 mi WNW 11.5 mph 20.7 mph N/A   Partly Cloudy
2:53 PM 82.0 °F 35.1 °F 18% 29.73 in 10.0 mi WNW 8.1 mph 28.8 mph N/A   Partly Cloudy
3:53 PM 82.0 °F 36.0 °F 19% 29.71 in 10.0 mi WNW 16.1 mph 27.6 mph N/A   Clear
4:53 PM 81.0 °F 34.0 °F 18% 29.70 in 10.0 mi West 10.4 mph 21.9 mph N/A   Partly Cloudy
5:53 PM 80.1 °F 32.0 °F 17% 29.70 in 10.0 mi WNW 16.1 mph 23.0 mph N/A   Partly Cloudy
6:53 PM 79.0 °F 33.1 °F 19% 29.71 in 10.0 mi West 9.2 mph - N/A   Clear
7:53 PM 77.0 °F 35.1 °F 22% 29.72 in 10.0 mi West 10.4 mph - N/A   Scattered Clouds
8:53 PM 70.0 °F 41.0 °F 35% 29.76 in 10.0 mi NNW 10.4 mph - N/A   Mostly Cloudy
9:53 PM 69.1 °F 41.0 °F 36% 29.77 in 10.0 mi NW 9.2 mph - N/A   Clear
10:53 PM 68.0 °F 41.0 °F 37% 29.79 in 10.0 mi NE 3.5 mph - N/A   Clear
11:53 PM 66.0 °F 41.0 °F 40% 29.79 in 10.0 mi Calm Calm - N/A   Clear